JBU7532 KEWR-TXKF

Flight info

Callsign JBU7532
Flight time N/A
Altitude 33000
Route ELVAE DCT NECCK DCT DIXIE Y481 KINGG/M078F370 DCT KINER L461 BOVIC MOMOM1
Aircraft A20N/M-SDE2E3FGHIRWXY/LB1

Departure

Time 2026-05-07 01:07
Airport Newark Liberty International Airport (KEWR)

Arrival

Time N/A
Airport L.F. Wade International Airport (TXKF)
Time Latitude Longitude Altitude Speed Heading
2026-05-07 00:50 40.68963 -74.17468 11 ft 0 kts 20°
2026-05-07 00:58 40.68937 -74.17480 22 ft 6 kts 24°
2026-05-07 00:58 40.68903 -74.17515 23 ft 6 kts 50°
2026-05-07 00:58 40.68877 -74.17589 23 ft 9 kts 94°
2026-05-07 00:59 40.68880 -74.17606 25 ft 0 kts 105°
2026-05-07 01:01 40.68867 -74.17559 22 ft 0 kts 112°
2026-05-07 01:02 40.68856 -74.17529 22 ft 19 kts 115°
2026-05-07 01:02 40.68785 -74.17292 22 ft 30 kts 89°
2026-05-07 01:02 40.68861 -74.17145 22 ft 16 kts 22°
2026-05-07 01:02 40.69201 -74.17055 18 ft 60 kts 24°
2026-05-07 01:03 40.69536 -74.16831 22 ft 51 kts 28°
2026-05-07 01:03 40.69772 -74.16684 15 ft 39 kts 25°
2026-05-07 01:03 40.69981 -74.16556 15 ft 49 kts 26°
2026-05-07 01:03 40.70109 -74.16470 16 ft 0 kts 31°
2026-05-07 01:04 40.70085 -74.16489 17 ft 11 kts 31°
2026-05-07 01:04 40.70033 -74.16552 16 ft 4 kts 59°
2026-05-07 01:04 40.70053 -74.16497 15 ft 0 kts 71°
2026-05-07 01:05 40.70058 -74.16445 15 ft 15 kts 91°
2026-05-07 01:06 40.70013 -74.16333 15 ft 0 kts 144°
2026-05-07 01:06 40.70054 -74.16363 15 ft 10 kts 162°
2026-05-07 01:06 40.69922 -74.16431 15 ft 70 kts 206°
2026-05-07 01:06 40.69207 -74.16886 19 ft 152 kts 205°
2026-05-07 01:07 40.68152 -74.17575 411 ft 181 kts 208°
2026-05-07 01:07 40.67002 -74.18408 1105 ft 195 kts 212°
2026-05-07 01:07 40.65806 -74.19357 1818 ft 217 kts 217°
2026-05-07 01:07 40.64871 -74.20042 2106 ft 250 kts 206°
2026-05-07 01:08 40.62725 -74.20459 1979 ft 321 kts 182°
2026-05-07 01:08 40.60401 -74.20626 2022 ft 349 kts 196°
2026-05-07 01:08 40.58128 -74.21607 2016 ft 327 kts 205°
2026-05-07 01:08 40.56146 -74.22677 2007 ft 289 kts 206°
2026-05-07 01:09 40.54403 -74.23656 2012 ft 256 kts 207°
2026-05-07 01:09 40.52861 -74.24515 2012 ft 249 kts 207°
2026-05-07 01:09 40.51848 -74.25078 2018 ft 246 kts 207°
2026-05-07 01:09 40.49981 -74.26102 2233 ft 250 kts 207°
2026-05-07 01:10 40.48376 -74.26980 2387 ft 249 kts 207°
2026-05-07 01:10 40.47324 -74.27554 2391 ft 248 kts 207°
2026-05-07 01:10 40.45220 -74.28712 2388 ft 246 kts 207°
2026-05-07 01:10 40.43607 -74.29490 2414 ft 253 kts 197°
2026-05-07 01:11 40.41845 -74.29443 2733 ft 259 kts 173°
2026-05-07 01:11 40.40669 -74.29058 3045 ft 264 kts 170°
2026-05-07 01:11 40.38922 -74.28404 3511 ft 266 kts 169°
2026-05-07 01:11 40.37148 -74.27682 4053 ft 267 kts 168°
2026-05-07 01:12 40.35367 -74.26941 4763 ft 270 kts 168°
2026-05-07 01:12 40.33571 -74.26190 5453 ft 274 kts 169°
2026-05-07 01:12 40.31751 -74.25429 6162 ft 276 kts 170°
2026-05-07 01:12 40.29906 -74.24662 6841 ft 279 kts 170°
2026-05-07 01:13 40.28054 -74.23894 7512 ft 281 kts 171°
2026-05-07 01:13 40.26181 -74.23119 8216 ft 285 kts 171°
2026-05-07 01:13 40.24284 -74.22338 8923 ft 286 kts 171°
2026-05-07 01:13 40.22368 -74.21550 9651 ft 290 kts 171°
2026-05-07 01:14 40.20437 -74.20756 10320 ft 292 kts 171°
2026-05-07 01:14 40.18449 -74.19944 11002 ft 312 kts 171°
2026-05-07 01:14 40.16332 -74.19088 11693 ft 334 kts 171°
2026-05-07 01:14 40.14005 -74.18140 12431 ft 354 kts 170°
2026-05-07 01:15 40.11683 -74.16831 13073 ft 376 kts 155°
2026-05-07 01:15 40.09692 -74.14614 13285 ft 392 kts 137°
2026-05-07 01:15 40.08233 -74.11576 13211 ft 399 kts 117°
2026-05-07 01:15 40.07505 -74.08077 13206 ft 404 kts 103°
2026-05-07 01:16 40.07146 -74.05140 13203 ft 405 kts 102°
2026-05-07 01:16 40.06689 -74.01519 13197 ft 405 kts 104°
2026-05-07 01:16 40.06132 -73.97924 13199 ft 404 kts 106°
2026-05-07 01:16 40.05492 -73.94375 13220 ft 402 kts 108°
2026-05-07 01:17 40.04797 -73.90828 13471 ft 404 kts 109°
2026-05-07 01:17 40.04075 -73.87271 13843 ft 406 kts 109°
2026-05-07 01:17 40.03342 -73.83693 14194 ft 409 kts 109°
2026-05-07 01:17 40.02604 -73.80103 14538 ft 412 kts 109°
2026-05-07 01:18 40.01858 -73.76468 14909 ft 416 kts 109°
2026-05-07 01:18 40.01128 -73.72914 15254 ft 419 kts 108°
2026-05-07 01:18 40.00367 -73.69209 15620 ft 422 kts 108°
2026-05-07 01:18 39.99615 -73.65555 15984 ft 425 kts 108°
2026-05-07 01:19 39.98846 -73.61818 16354 ft 428 kts 108°
2026-05-07 01:19 39.98074 -73.58075 16729 ft 431 kts 108°
2026-05-07 01:19 39.97288 -73.54267 17118 ft 434 kts 108°
2026-05-07 01:19 39.96503 -73.50473 17499 ft 438 kts 108°
2026-05-07 01:20 39.95691 -73.46556 17902 ft 441 kts 108°
2026-05-07 01:20 39.94890 -73.42695 18279 ft 444 kts 108°
2026-05-07 01:20 39.94079 -73.38793 18617 ft 448 kts 108°
2026-05-07 01:20 39.93276 -73.34936 18961 ft 452 kts 108°
2026-05-07 01:21 39.92432 -73.30890 19316 ft 456 kts 108°
2026-05-07 01:21 39.91607 -73.26944 19668 ft 460 kts 108°
2026-05-07 01:21 39.90762 -73.22905 20028 ft 464 kts 108°
2026-05-07 01:21 39.89911 -73.18847 20389 ft 468 kts 108°
2026-05-07 01:22 39.89049 -73.14746 20753 ft 472 kts 108°
2026-05-07 01:22 39.88178 -73.10610 21115 ft 476 kts 108°
2026-05-07 01:22 39.87297 -73.06436 21510 ft 480 kts 108°
2026-05-07 01:22 39.86409 -73.02235 21884 ft 484 kts 108°
2026-05-07 01:23 39.85509 -72.97986 22274 ft 488 kts 108°
2026-05-07 01:23 39.84604 -72.93724 22664 ft 492 kts 108°
2026-05-07 01:23 39.83687 -72.89411 23062 ft 496 kts 108°
2026-05-07 01:23 39.82761 -72.85064 23463 ft 500 kts 108°
2026-05-07 01:24 39.81708 -72.80751 23802 ft 501 kts 113°
2026-05-07 01:24 39.80556 -72.76531 24141 ft 503 kts 113°
2026-05-07 01:24 39.79394 -72.72230 24477 ft 505 kts 113°
2026-05-07 01:24 39.78229 -72.67914 24817 ft 508 kts 113°
2026-05-07 01:25 39.77053 -72.63569 25170 ft 510 kts 113°
2026-05-07 01:25 39.75871 -72.59215 25522 ft 513 kts 113°
2026-05-07 01:25 39.74684 -72.54856 25876 ft 515 kts 113°
2026-05-07 01:25 39.73485 -72.50464 26235 ft 518 kts 113°
2026-05-07 01:26 39.72273 -72.46031 26611 ft 520 kts 113°
2026-05-07 01:26 39.71058 -72.41592 26978 ft 523 kts 113°
2026-05-07 01:26 39.69835 -72.37138 27357 ft 525 kts 113°
2026-05-07 01:26 39.68606 -72.32663 27739 ft 528 kts 114°
2026-05-07 01:27 39.67367 -72.28166 28122 ft 530 kts 114°
2026-05-07 01:27 39.66088 -72.23673 28514 ft 531 kts 117°
2026-05-07 01:27 39.64412 -72.19447 28909 ft 526 kts 128°
2026-05-07 01:27 39.62278 -72.15630 29314 ft 520 kts 137°
2026-05-07 01:28 39.59890 -72.12269 29718 ft 520 kts 141°
2026-05-07 01:28 39.57362 -72.08760 30114 ft 523 kts 140°
2026-05-07 01:28 39.54905 -72.05340 30462 ft 527 kts 140°
2026-05-07 01:28 39.52401 -72.01852 30809 ft 531 kts 140°
2026-05-07 01:29 39.49879 -71.98340 31167 ft 534 kts 140°
2026-05-07 01:29 39.47334 -71.94802 31530 ft 538 kts 140°
2026-05-07 01:29 39.44786 -71.91261 31900 ft 539 kts 140°
2026-05-07 01:29 39.42228 -71.87710 32268 ft 540 kts 140°
2026-05-07 01:30 39.39663 -71.84154 32653 ft 541 kts 140°
2026-05-07 01:30 39.37093 -71.80597 32906 ft 541 kts 140°
2026-05-07 01:30 39.34519 -71.77038 32954 ft 541 kts 140°
2026-05-07 01:31 39.29450 -71.70042 32956 ft 540 kts 140°
2026-05-07 01:31 39.24249 -71.62884 32960 ft 540 kts 140°
2026-05-07 01:32 39.19071 -71.55939 32963 ft 535 kts 145°
2026-05-07 01:32 39.13511 -71.49500 32977 ft 539 kts 146°
2026-05-07 01:33 39.07943 -71.43035 32972 ft 539 kts 146°
2026-05-07 01:33 39.02363 -71.36571 32975 ft 540 kts 146°
2026-05-07 01:34 38.96778 -71.30118 32982 ft 539 kts 146°
2026-05-07 01:34 38.91196 -71.23684 32984 ft 540 kts 146°
2026-05-07 01:35 38.85597 -71.17246 32989 ft 540 kts 146°
2026-05-07 01:35 38.80041 -71.10871 32991 ft 538 kts 146°
2026-05-07 01:36 38.74459 -71.04481 32992 ft 538 kts 146°
2026-05-07 01:36 38.68885 -70.98114 33000 ft 537 kts 146°
2026-05-07 01:37 38.63315 -70.91766 33003 ft 536 kts 146°
2026-05-07 01:37 38.57754 -70.85441 33007 ft 535 kts 145°
2026-05-07 01:38 38.52228 -70.79170 33012 ft 534 kts 145°
2026-05-07 01:38 38.46692 -70.72900 33017 ft 532 kts 145°
2026-05-07 01:39 38.41153 -70.66640 33022 ft 531 kts 145°
2026-05-07 01:39 38.35627 -70.60409 33023 ft 529 kts 145°
2026-05-07 01:40 38.30121 -70.54213 33025 ft 528 kts 145°
2026-05-07 01:40 38.24617 -70.48033 33029 ft 526 kts 145°
2026-05-07 01:41 38.19132 -70.41887 33032 ft 525 kts 144°
2026-05-07 01:41 38.13721 -70.35776 33032 ft 526 kts 141°
2026-05-07 01:42 38.08700 -70.28979 33044 ft 528 kts 137°
2026-05-07 01:42 38.03715 -70.22146 33046 ft 527 kts 137°
2026-05-07 01:43 37.98741 -70.15363 33048 ft 526 kts 137°
2026-05-07 01:43 37.93783 -70.08628 33054 ft 525 kts 137°
2026-05-07 01:44 37.88804 -70.01879 33059 ft 525 kts 137°
2026-05-07 01:44 37.83819 -69.95136 33064 ft 524 kts 137°
2026-05-07 01:45 37.78840 -69.88415 33070 ft 523 kts 137°
2026-05-07 01:45 37.73876 -69.81730 33074 ft 523 kts 137°
2026-05-07 01:46 37.68885 -69.75022 33077 ft 522 kts 137°
2026-05-07 01:46 37.63953 -69.68407 33074 ft 521 kts 137°
2026-05-07 01:47 37.58981 -69.61753 33083 ft 521 kts 137°
2026-05-07 01:47 37.54009 -69.55112 33087 ft 521 kts 137°
2026-05-07 01:48 37.49028 -69.48473 33090 ft 521 kts 137°
2026-05-07 01:48 37.44079 -69.41890 33093 ft 521 kts 137°
2026-05-07 01:49 37.39088 -69.35266 33096 ft 522 kts 137°
2026-05-07 01:49 37.34094 -69.28650 33102 ft 522 kts 137°
2026-05-07 01:50 37.29095 -69.22043 33101 ft 522 kts 137°
2026-05-07 01:50 37.24092 -69.15442 33102 ft 522 kts 137°
2026-05-07 01:51 37.19117 -69.08892 33107 ft 522 kts 137°
2026-05-07 01:51 37.14080 -69.02274 33112 ft 522 kts 137°
2026-05-07 01:52 37.09109 -68.95756 33110 ft 522 kts 137°
2026-05-07 01:52 37.04077 -68.89170 33115 ft 522 kts 137°
2026-05-07 01:53 36.99056 -68.82613 33117 ft 522 kts 136°
2026-05-07 01:53 36.96781 -68.79070 33116 ft 526 kts 125°
2026-05-07 01:53 36.95042 -68.75031 33118 ft 528 kts 113°
2026-05-07 01:53 36.93921 -68.70670 33126 ft 529 kts 102°
2026-05-07 01:54 36.93454 -68.66175 33123 ft 527 kts 90°
2026-05-07 01:54 36.93649 -68.61636 33125 ft 523 kts 78°
2026-05-07 01:54 36.94503 -68.57251 33124 ft 517 kts 67°
2026-05-07 01:54 36.95979 -68.53186 33125 ft 510 kts 55°
2026-05-07 01:55 36.98010 -68.49602 33126 ft 501 kts 43°
2026-05-07 01:55 37.00506 -68.46627 33123 ft 492 kts 31°
2026-05-07 01:55 37.03362 -68.44366 33128 ft 481 kts 20°
2026-05-07 01:55 37.06450 -68.42898 33126 ft 470 kts
2026-05-07 01:56 37.09603 -68.42270 33123 ft 460 kts 356°
2026-05-07 01:56 37.15892 -68.43047 33121 ft 447 kts 342°
2026-05-07 01:57 37.21585 -68.45742 33120 ft 439 kts 331°
2026-05-07 01:57 37.27169 -68.48830 33116 ft 440 kts 331°
2026-05-07 01:58 37.32630 -68.52222 33113 ft 436 kts 326°
2026-05-07 01:58 37.37952 -68.55915 33107 ft 437 kts 326°
2026-05-07 01:59 37.43254 -68.59627 33106 ft 435 kts 323°
2026-05-07 01:59 37.48047 -68.64149 33104 ft 429 kts 316°
2026-05-07 02:00 37.52654 -68.68927 33103 ft 429 kts 316°
2026-05-07 02:00 37.57269 -68.73698 33099 ft 429 kts 316°
2026-05-07 02:01 37.61852 -68.78421 33094 ft 428 kts 316°
2026-05-07 02:01 37.66475 -68.83170 33094 ft 428 kts 316°
2026-05-07 02:02 37.71079 -68.87888 33091 ft 427 kts 316°
2026-05-07 02:02 37.75710 -68.92616 33091 ft 427 kts 316°